Regional Weather Roundup
Issued by NWS

Home | Current Version | Previous Version | Graphics & Text | Print | Product List | Glossary On
Versions: 1 2 3 4 5 6 7 8 9 10 11 12 13 14 15 16 17 18 19 20 21 22 23 24 25 26 27 28 29 30 31 32 33 34 35 36 37 38 39 40 41 42 43 44 45 46 47 48 49 50
000
ASUS43 KLOT 250103
RWRIL

ILLINOIS REGIONAL WEATHER ROUNDUP
NATIONAL WEATHER SERVICE CHICAGO/ROMEOVILLE IL
800 PM CDT SAT JUN 24 2017

NOTE: "FAIR" INDICATES FEW OR NO CLOUDS BELOW 12,000 FEET WITH NO
SIGNIFICANT WEATHER AND/OR OBSTRUCTIONS TO VISIBILITY.

* THESE STATIONS ARE NOT UNDER NWS QUALITY CONTROL. THEY ALSO MAY NOT
  REPORT WEATHER SUCH AS PRECIPITATION OR FOG.

ILZ001-002-007-009-015-016-024-250200-
NORTHWEST ILLINOIS

CITY           SKY/WX    TMP DP  RH WIND       PRES   REMARKS
MOLINE         MOCLDY    71  43  36 SW7       30.04S
STERLING*      CLEAR     68  44  42 SW9       30.03F
SAVANNA*       CLOUDY    59  53  81 N3        30.05R
$$

ILZ003-004-008-010-011-017-018-250200-
NORTH CENTRAL ILLINOIS

CITY           SKY/WX    TMP DP  RH WIND       PRES   REMARKS
ROCKFORD       CLOUDY    59  52  77 N12       30.06F
FREEPORT*      CLOUDY    56  52  88 N6        30.07R
ROCHELLE*      PTCLDY    65  46  50 W6        30.04S
DE KALB*       MOCLDY    67  44  42 W9        30.05R
PERU*          CLEAR     67  43  41 W7        30.05F
$$

ILZ005-006-012>014-019>023-250200-
NORTHEAST ILLINOIS

CITY           SKY/WX    TMP DP  RH WIND       PRES   REMARKS
CHICAGO-OHARE  PTCLDY    70  40  33 NW16      30.02R
CHICAGO-MIDWAY PTCLDY    70  41  34 W14G22    30.02R
AURORA         CLEAR     68  44  42 W13       30.04R
LANSING*       CLEAR     68  40  35 NW7G16    30.04R
JOLIET*        CLEAR     71  43  36 W8G16     30.04S
WAUKEGAN       CLEAR     66  43  43 W5        30.01R
DUPAGE AIRPORT CLEAR     67  43  41 NW9       30.03R
WHEELING       CLEAR     69  44  40 NW8       30.03R
MORRIS*        CLEAR     68  44  41 W14       30.04S
ROMEOVILLE*    CLEAR     69  38  32 NW10      30.04S
NORTHERLY ISL    N/A     70  37  29 NW7         N/A
$$

LMZ740>746-250200-
SOUTHERN LAKE MICHIGAN

STATION/POSITION SKY/WX   TEMP    WIND        PRES    VSBY  WAVE
                          AIR SEA DIR/SP/G                  HT/PER
                          (F)     (DEG/KT/KT) (MB)    (MI)  (FT/S)
SOUTHERN BUOY              65 63  330/  4/  6 1015.1          1/ 3
WILMETTE HARBOR            68 65  280/ 14/ 17   N/A           3/ 3
HARRISON CRIB              70     300/ 18/ 20   N/A
BURNHAM HARBOR             70                   N/A
CALUMET HARBOR             71     290/  7/ 13 1016.0R
BURNS HARBOR               69     290/ 15/ 20 1016.6R
MICHIGAN CITY              68     280/ 18/ 21   N/A
MICHIGAN CITY 6N           69 68  300/ 16/ 19   N/A           3/ 4
ST. JOSEPH                 68 69  300/ 14/ 17 1016.0R         2/ 4
$$

ILZ025>027-034>036-040-047-049-050-058-095>099-250200-
WEST-CENTRAL ILLINOIS

CITY           SKY/WX    TMP DP  RH WIND       PRES   REMARKS
QUINCY         CLEAR     71  45  39 W5        30.11S
GALESBURG*     CLEAR     69  44  39 SW6       30.08S
MACOMB*        CLEAR     68  46  45 W6        30.11S
JACKSONVILLE*  CLEAR     69  45  42 W5        30.12R
PITTSFIELD*    CLEAR     72  46  39 W3        30.14R
$$

ILZ028>032-037-038-041>044-048-051>054-059>061-250200-
CENTRAL ILLINOIS

CITY           SKY/WX    TMP DP  RH WIND       PRES   REMARKS
PONTIAC        CLEAR     70  45  40 W7        30.08R
BLOOMINGTON    CLEAR     68  44  42 W10       30.10R
DECATUR        CLEAR     71  41  33 NW10      30.11R
PEORIA         CLEAR     71  42  35 W5        30.08S
LACON*         CLEAR     70  43  37 W5        30.06S
LINCOLN*       CLEAR     71  43  35 CALM      30.10S
SPRINGFIELD    CLEAR     73  44  35 W5        30.11R
TAYLORVILLE    CLEAR     69  45  41 NW7       30.12R
$$

ILZ033-039-045-046-055>057-062-063-250200-
EAST-CENTRAL ILLINOIS

CITY           SKY/WX    TMP DP  RH WIND       PRES   REMARKS
CHAMPAIGN      CLEAR     69  42  37 NW9       30.10R
RANTOUL*       CLEAR     71  45  40 W7        30.09R
MATTOON        CLEAR     69  48  47 NW9       30.09R
PARIS*         CLEAR     67  49  52 NW6       30.10R
$$

ILZ079-100>102-250200-
SOUTHWEST ILLINOIS

CITY           SKY/WX    TMP DP  RH WIND       PRES   REMARKS
ALTON          CLEAR     72  48  43 NW9       30.13R
BELLEVILLE     CLEAR     73  44  35 NW9       30.14R
CAHOKIA*       CLEAR     74  41  30 N13       30.14R
SPARTA*        CLEAR     74  47  38 N6        30.14R
$$

ILZ064>066-069>071-074>076-080>082-084>086-088>090-092>094-250200-
SOUTH-CENTRAL ILLINOIS

CITY           SKY/WX    TMP DP  RH WIND       PRES   REMARKS
CARBONDALE     CLOUDY    73  54  51 NW3       30.12R
CAIRO*         MOCLDY    71  62  73 CALM      30.13R
EFFINGHAM*     CLEAR     73  49  43 W8        30.12R
MARION         CLOUDY    72  55  56 CALM      30.13R
MT. VERNON     CLEAR     72  51  47 CALM      30.12R
CENTRALIA*     CLEAR     73  51  45 NW6       30.11R
SALEM*         CLEAR     73  48  42 NW6       30.12R
METROPOLIS*    PTCLDY    71  60  69 CALM      30.13R
$$

ILZ067-068-072-073-078-083-087-091-250200-
SOUTHEAST ILLINOIS

CITY           SKY/WX    TMP DP  RH WIND       PRES   REMARKS
LAWRENCEVILLE  CLEAR     71  52  50 NW6       30.10R
FLORA*         CLEAR     74  49  41 NW7       30.12R
FAIRFIELD*     CLEAR     71  51  49 CALM      30.11R
HARRISBURG*    CLOUDY    73  54  51 N5        30.12R
ROBINSON*      CLEAR     68  53  59 W6        30.11R
CARMI*         CLOUDY    71  56  59 NW5       30.11R
$$

ABBREVIATIONS USED IN REMARKS
   TC - TEMPERATURE IN CELSIUS
  WCI - WIND CHILL INDEX
   HX - HEAT INDEX
  VSB - VISIBILITY
$$





USA.gov is the U.S. government's official web portal to all federal, state and local government web resources and services.